KCMH Airport Diagram

We have created a template for each of the higher traffic airports in the vZID airspace. They include KCMH, KCRW, KCVG, KDAY, KIND, KLEX and KSDF. You wil find usefull information including the airport diagram, weather, and specific airport procedures.

KCMH Weather

[Source: ADDS]
METAR
KCMH 181751Z 07011G19KT 10SM CLR 28/09 A3015 RMK AO2 SLP204 T02780094 10278 20167 58001 =
KCMH 181739Z 1818/1918 08008KT P6SM FEW250 FM190100 11004KT P6SM SKC
TAF
KCMH 181739Z 1818/1918 08008KT P6SM FEW250 FM190100 11004KT P6SM SKC =

KCMH Operations

Calm wind runway(s) up to 10 kts: Arriving/Departing 28L/R

Typically, Rw 10R/28L for departures to the West and South and Rw 10L/28R for departures to the North and East.

FBOs: Lane Aviation midfield near Tower, Signature South of Twy B.

Advise ATC if you have updated scenery for KCMH as there are significant changes to the runway/taxiways on the South side of the airport. Default scenery does not match the Airport Diagram available through the usual sources.

JSN Epic template designed by JoomlaShine.com